Location: Unspecified
(0.0000°N, 0.0000°E)
Time: 01:30:13
(UTC+00:00)

Vanguard 2 Rocket - All Passes

Search period start: 20 July 2019 00:00
Search period end: 30 July 2019 00:00
Orbit: 554 x 3326 km, 32.9° (Epoch: 19 July)

Date Brightness Start Highest point End Pass type
(mag) Time Alt. Az. Time Alt. Az. Time Alt. Az.
20 Jul - 00:58:33 10° SW 01:05:52 18° S 01:15:38 10° SSE visible
20 Jul - 03:18:50 10° SSW 03:28:45 17° S 03:40:03 10° SE visible
20 Jul - 05:36:03 10° SSW 05:52:32 30° SSE 06:07:34 10° ESE visible
20 Jul - 07:53:10 10° SW 08:13:09 64° SSE 08:26:41 10° ENE daylight
20 Jul - 10:13:26 10° WSW 10:30:03 53° NW 10:39:58 10° NE daylight
20 Jul - 12:41:56 10° NW 12:44:54 11° NW 12:47:32 10° NNW daylight
20 Jul - 19:30:56 10° N 19:34:19 21° NE 19:38:43 10° E visible
20 Jul - 21:41:49 10° WNW 21:47:17 55° SSW 21:56:47 10° SE visible
20 Jul - 23:57:29 10° WSW 00:03:59 20° SSW 00:13:12 10° SSE night (unlit)
21 Jul - 02:17:28 10° SSW 02:25:10 15° S 02:34:21 10° SSE visible
21 Jul - 04:34:53 10° SSW 04:49:03 24° SSE 05:03:37 10° ESE visible
21 Jul - 06:51:13 10° SW 07:10:47 51° SSE 07:25:52 10° ENE daylight
21 Jul - 09:09:56 10° WSW 09:29:08 74° NW 09:40:55 10° NE daylight
21 Jul - 11:34:28 10° W 11:44:33 22° NW 11:51:34 10° N daylight
21 Jul - 20:42:51 10° NW 20:47:36 89° SW 20:55:31 10° SE visible
21 Jul - 22:57:00 10° WSW 23:02:47 24° SSW 23:11:29 10° SSE night (unlit)
22 Jul - 01:16:11 10° SSW 01:22:10 14° S 01:29:31 10° SSE visible
22 Jul - 03:34:05 10° SSW 03:45:25 19° SSE 03:58:10 10° SE visible
22 Jul - 05:49:47 10° SW 06:07:58 40° SSE 06:24:04 10° E daylight
22 Jul - 08:07:07 10° SW 08:27:34 85° SE 08:41:18 10° ENE daylight
22 Jul - 10:29:09 10° W 10:44:02 36° NW 10:53:33 10° NNE daylight
22 Jul - 19:44:18 10° NW 19:48:23 45° NE 19:54:18 10° ESE visible
22 Jul - 21:57:03 10° W 22:02:12 30° SSW 22:10:17 10° SE night (unlit)
23 Jul - 00:14:56 10° SW 00:19:55 14° S 00:26:08 10° SSE night (unlit)
23 Jul - 02:33:39 10° SSW 02:41:54 15° SSE 02:51:35 10° SE visible
23 Jul - 04:48:50 10° SSW 05:04:51 31° SSE 05:21:00 10° E visible
23 Jul - 07:04:58 10° SW 07:25:26 68° SE 07:40:58 10° ENE daylight
23 Jul - 09:24:51 10° WSW 09:43:09 54° NW 09:54:48 10° NE daylight
23 Jul - 11:52:56 10° WNW 11:59:05 14° NW 12:04:01 10° N daylight
23 Jul - 18:46:18 10° N 18:49:18 20° NE 18:52:50 10° E visible
23 Jul - 20:57:32 10° WNW 21:02:09 44° SSW 21:09:29 10° SE visible
23 Jul - 23:13:54 10° SW 23:18:22 15° SSW 23:24:10 10° SSE night (unlit)
24 Jul - 01:33:34 10° SSW 01:38:45 13° S 01:44:46 10° SSE visible
24 Jul - 03:48:23 10° SSW 04:01:36 24° SSE 04:16:22 10° ESE visible
24 Jul - 06:03:27 10° SW 06:22:52 53° SSE 06:39:46 10° ENE daylight
24 Jul - 08:21:29 10° WSW 08:41:43 73° NW 08:55:29 10° NE daylight
24 Jul - 10:45:57 10° W 10:58:16 25° NW 11:06:50 10° NNE daylight
24 Jul - 19:58:26 10° WNW 20:02:38 78° SSW 20:08:53 10° SE visible
24 Jul - 22:13:15 10° WSW 22:17:27 18° SSW 22:23:10 10° SSE night (unlit)
25 Jul - 00:33:52 10° S 00:36:11 11° S 00:38:42 10° SSE visible
25 Jul - 02:48:27 10° SSW 02:58:22 18° SSE 03:10:07 10° ESE visible
25 Jul - 05:02:32 10° SW 05:20:03 42° SSE 05:37:30 10° E visible
25 Jul - 07:18:58 10° SW 07:39:45 88° SE 07:55:31 10° NE daylight
25 Jul - 09:40:36 10° W 09:57:12 38° NW 10:08:25 10° NNE daylight
25 Jul - 18:59:40 10° NW 19:03:29 47° NE 19:08:20 10° ESE visible
25 Jul - 21:13:03 10° WSW 21:17:05 23° SSW 21:22:46 10° SSE visible
26 Jul - 01:49:11 10° S 01:55:19 13° SSE 02:02:30 10° SE visible
26 Jul - 04:02:10 10° SSW 04:17:08 32° SSE 04:33:51 10° E visible
26 Jul - 06:17:14 10° SW 06:37:22 70° SE 06:54:47 10° ENE daylight
26 Jul - 08:36:26 10° WSW 08:55:47 54° NW 09:09:20 10° NE daylight
26 Jul - 11:04:09 10° WNW 11:12:57 17° NNW 11:19:44 10° N daylight
26 Jul - 18:01:21 10° NNW 18:04:22 20° NE 18:07:33 10° E daylight
26 Jul - 20:13:17 10° W 20:17:12 34° SSW 20:22:42 10° SE visible
26 Jul - 22:32:35 10° SSW 22:33:01 10° S 22:33:27 10° S night (unlit)
27 Jul - 03:02:23 10° SSW 03:14:16 23° SSE 03:28:35 10° ESE visible
27 Jul - 05:16:12 10° SW 05:34:44 55° SE 05:53:10 10° ENE visible
27 Jul - 07:33:23 10° WSW 07:53:53 72° NW 08:09:38 10° NE daylight
27 Jul - 09:57:23 10° W 10:11:35 27° NW 10:21:49 10° NNE daylight
27 Jul - 19:13:54 10° WNW 19:17:47 65° SW 19:22:47 10° SE visible
27 Jul - 21:30:13 10° SW 21:32:19 12° SSW 21:34:44 10° S night (unlit)
28 Jul - 02:03:18 10° SSW 02:11:32 17° SSE 02:21:35 10° ESE visible
28 Jul - 04:15:48 10° SSW 04:32:04 42° SSE 04:50:23 10° E visible
28 Jul - 06:31:17 10° SW 06:51:35 90° SE 07:09:17 10° NE daylight
28 Jul - 08:52:12 10° W 09:09:58 40° NW 09:22:58 10° NNE daylight
28 Jul - 11:24:21 10° NW 11:28:15 11° NNW 11:31:41 10° N daylight
28 Jul - 18:14:49 10° NW 18:18:41 54° NE 18:22:52 10° ESE daylight
28 Jul - 20:29:15 10° WSW 20:32:06 16° SSW 20:35:36 10° SSE visible
29 Jul - 01:06:01 10° S 01:09:01 11° SSE 01:12:18 10° SSE visible
29 Jul - 03:16:00 10° SSW 03:29:32 31° SSE 03:46:10 10° E visible
29 Jul - 05:30:01 10° SW 05:49:04 72° SE 06:08:08 10° ENE visible
29 Jul - 07:48:23 10° WSW 08:08:02 54° NW 08:23:28 10° NE daylight
29 Jul - 10:15:25 10° WNW 10:26:29 19° NNW 10:35:01 10° N daylight
29 Jul - 17:15:59 10° NNW 17:19:29 24° NNE 17:22:43 10° E daylight
29 Jul - 19:28:59 10° W 19:32:21 25° SSW 19:36:25 10° SSE visible
